Weather History for Philip, SD

Change the Weather History Date:

Wednesday, February 6, 2013

  Actual Average Record
Temperature  
Mean Temperature 37 °F 24 °F  
Max Temperature 51 °F 37 °F 61 °F (1965)
Min Temperature 22 °F 11 °F -19 °F (1988)
Degree Days  
Heating Degree Days 28 41  
Month to date heating degree days 182 248  
Since 1 July heating degree days 4217 4513  
Cooling Degree Days 0 0  
Month to date cooling degree days 0 0  
Year to date cooling degree days 0 0  
Moisture  
Dew Point 27 °F    
Average Humidity 70    
Maximum Humidity 96    
Minimum Humidity 44    
Precipitation  
Precipitation 0.00 in 0.02 in 0.08 in (2007)
Month to date precipitation T 0.07  
Year to date precipitation 0.53 0.37  
Sea Level Pressure  
Sea Level Pressure 29.89 in    
Wind  
Wind Speed 6 mph (WNW)    
Max Wind Speed 13 mph    
Max Gust Speed 15 mph    
Visibility 10 miles    
Events      
T = Trace of Precipitation, MM = Missing Value Source: NWS Daily Summary

Daily Weather History Graph

Daily Weather History Graph

Search for Another Location

Airport:

Trip Planner

Search our weather history database for the weather conditions in past years. The results will help you decide how hot, cold, wet, or windy it might be!

Date:

Astronomy

Feb. 06, 2013 Rise Set
Actual Time 6:57 AM MST 5:04 PM MST
Civil Twilight 6:27 AM MST 5:34 PM MST
Nautical Twilight 5:53 AM MST 6:08 PM MST
Astronomical Twilight 5:19 AM MST 6:42 PM MST
Moon 3:47 AM MST (2/6) 1:20 PM MST (2/6)
Length of Visible Light 11h 07m
Length of Day
10h 06m
Waning Crescent, 16% of the Moon is Illuminated
Feb 6
Waning Crescent
Feb 10
New
Feb 17
First Quarter
Feb 25
Full
Mar 4
Last Quarter

Hourly Weather History & Observations

Time (MST) Temp. Windchill Dew Point Humidity Pressure Visibility Wind Dir Wind Speed Gust Speed Precip Events Conditions
12:55 AM 30.0 °F 26.5 °F 24.1 °F 79% 29.80 in 10.0 mi NE 3.5 mph - N/A   Clear
1:55 AM 28.0 °F 24.2 °F 23.0 °F 81% 29.79 in 10.0 mi NNE 3.5 mph - N/A   Clear
2:55 AM 27.0 °F - 23.0 °F 85% 29.77 in 10.0 mi Calm Calm - N/A   Clear
3:55 AM 23.0 °F 17.0 °F 21.0 °F 92% 29.77 in 10.0 mi West 4.6 mph - N/A   Clear
4:55 AM 23.0 °F 17.0 °F 21.0 °F 92% 29.77 in 10.0 mi WNW 4.6 mph - N/A   Clear
5:55 AM 21.9 °F 15.7 °F 19.9 °F 92% 29.79 in 10.0 mi WNW 4.6 mph - N/A   Clear
6:55 AM 24.1 °F 19.7 °F 21.0 °F 88% 29.80 in 10.0 mi West 3.5 mph - N/A   Clear
7:55 AM 28.0 °F 22.8 °F 25.0 °F 88% 29.82 in 10.0 mi West 4.6 mph - N/A   Clear
8:55 AM 32.0 °F 26.4 °F 28.0 °F 85% 29.83 in 10.0 mi West 5.8 mph - N/A   Clear
9:55 AM 36.0 °F 31.1 °F 30.0 °F 79% 29.84 in 10.0 mi WSW 5.8 mph - N/A   Clear
10:55 AM 42.1 °F 37.7 °F 33.1 °F 70% 29.85 in 10.0 mi West 6.9 mph - N/A   Clear
11:55 AM 48.0 °F - 33.1 °F 56% 29.84 in 10.0 mi NW 10.4 mph - N/A   Clear
12:55 PM 48.9 °F - 33.1 °F 54% 29.84 in 10.0 mi NNW 9.2 mph - N/A   Clear
1:55 PM 51.1 °F - 30.9 °F 46% 29.85 in 10.0 mi North 9.2 mph - N/A   Clear
2:55 PM 50.0 °F - 30.9 °F 48% 29.88 in 10.0 mi NNW 8.1 mph - N/A   Scattered Clouds
3:55 PM 48.0 °F - 32.0 °F 54% 29.90 in 10.0 mi NNW 3.5 mph - N/A   Overcast
4:55 PM 45.0 °F - 30.9 °F 58% 29.93 in 10.0 mi Calm Calm - N/A   Overcast
5:55 PM 42.1 °F 38.4 °F 28.9 °F 60% 29.96 in 10.0 mi NW 5.8 mph - N/A   Overcast
6:55 PM 39.0 °F 34.0 °F 28.9 °F 67% 30.00 in 10.0 mi NW 6.9 mph - N/A   Mostly Cloudy
7:55 PM 36.0 °F 31.1 °F 27.0 °F 70% 30.02 in 10.0 mi NW 5.8 mph - N/A   Clear
8:55 PM 30.9 °F 24.3 °F 25.0 °F 79% 30.04 in 10.0 mi West 6.9 mph - N/A   Clear
9:55 PM 30.0 °F 22.4 °F 25.0 °F 82% 30.05 in 10.0 mi West 8.1 mph - N/A   Clear
10:55 PM 28.0 °F 21.7 °F 24.1 °F 85% 30.05 in 10.0 mi West 5.8 mph - N/A   Clear
11:55 PM 27.0 °F 19.5 °F 23.0 °F 85% 30.07 in 10.0 mi West 6.9 mph - N/A   Clear